Погода в Кордове

Аргентина     31°24′58″S   64°10′30″W
темп.,
°C
ветер,
м/с
пор.,
м/с
влажн.,
%
обл.,
%
осадки,
мм/ч
давл.,
гПа
погр.,
м
12 апреля, пн
пн1200:00+13сз22620 0.0 102115
03:00+12сз12640 0.0 102014
06:00+11сз22610 0.0 102012
09:00+14с12540 0.0 1020103
12:00+20ссв34390 0.0 1020792
15:00+22св44330 0.0 10171112
18:00+20св45470 0.0 1017337
21:00+15с35680 0.0 1020112
13 апреля, вт
вт1300:00+13с23730 0.0 102167
03:00+12с12760 0.0 102049
06:00+11ссз12780 0.0 102043
09:00+14ссв23670 0.0 1021159
12:00+20ссв44480 0.0 1020804
15:00+23св44410 0.0 10171185
18:00+20св46540 0.0 1016517
21:00+16ссв35750 0.0 1018130
14 апреля, ср
ср1400:00+14с35840 0.0 1018119
03:00+13ссв23880 0.0 101788
06:00+12ссв24890 0.0 101591
09:00+15ссв38790 0.0 1015320
12:00+21ссв56540 0.0 1014946
15:00+24св55490 0.0 10111168
18:00+22св46580 0.0 1011595
21:00+17ссв35750 0.0 1014124
15 апреля, чт
чт1500:00+16с23820 0.0 101563
03:00+15ссз11840 0.0 101415
06:00+15зсз01850 0.0 101411
09:00+17с00720 0.0 101590
12:00+24всв11520 0.0 1014605
15:00+26всв32454 0.0 10111355
18:00+23ссв466290 0.0 1011533
21:00+20ссв357255 0.0 1013206
16 апреля, пт
пт1600:00+18с12820 0.0 101449
03:00+17с12860 0.0 101435
06:00+16ссв11860 0.0 101418
09:00+18с23780 0.0 1016172
12:00+24св33610 0.0 1015853
15:00+26св44494 0.0 10131538
18:00+23всв55645 0.0 1013670
21:00+19ссв238894 0.2 1015103